Retour au catalogue

STARLINK-36423

ActifCommunicationsVLEO
NORAD 67448·PAYLOAD·🇺🇸 United States

Lancé Jan 14, 2026 depuis Cape Canaveral Space Force Station

Loading…

Prochains Passages (prochaines 24 heures)

TLE

FraisSource: CelesTrak SupGP

Époque: Sep 15, 2026, 04:07 UTC

1 67448C 26008D   26258.17201389  .00011543  00000+0  41825-3 0  2583
2 67448  42.9998 215.0750 0000940 270.0531  23.1078 15.27560597    12

Suivez STARLINK-36423 en temps réel avec AllMySat

Download on the App Store